Location: Lecco
(45.8566°N, 9.3977°E)
Time: 12:00:27
(UTC+02:00)

Explorer 7 - All Passes

Search period start: 07 August 2020 00:00
Search period end: 17 August 2020 00:00
Orbit: 485 x 679 km, 50.3° (Epoch: 06 August)

Date Brightness Start Highest point End Pass type
(mag) Time Alt. Az. Time Alt. Az. Time Alt. Az.
07 Aug - 01:26:00 10° WNW 01:29:35 41° N 01:33:10 10° ENE visible
07 Aug - 03:06:36 10° WNW 03:10:22 78° NNE 03:14:11 10° ESE visible
07 Aug - 04:47:26 10° W 04:50:32 24° SW 04:53:44 10° SSE visible
07 Aug - 20:32:44 10° SE 20:33:15 10° SE 20:33:47 10° SE daylight
07 Aug - 22:09:16 10° SW 22:13:05 53° SSE 22:16:47 10° ENE visible
07 Aug - 23:49:52 10° W 23:53:36 50° NNW 23:57:16 10° ENE visible
08 Aug - 01:30:53 10° WNW 01:34:30 44° N 01:38:07 10° E visible
08 Aug - 03:11:24 10° WNW 03:15:09 75° SSW 03:18:58 10° ESE visible
08 Aug - 04:52:49 10° W 04:55:08 16° SW 04:57:29 10° S visible
08 Aug - 20:35:11 10° S 20:37:48 17° SE 20:40:21 10° E daylight
08 Aug - 22:13:55 10° WSW 22:17:49 78° SSE 22:21:37 10° ENE visible
08 Aug - 23:54:50 10° W 23:58:30 43° N 00:02:06 10° ENE visible
09 Aug - 01:35:43 10° WNW 01:39:24 51° NNE 01:43:05 10° E visible
09 Aug - 03:16:14 10° WNW 03:19:53 50° SSW 03:23:36 10° SE night (unlit)
09 Aug - 20:39:02 10° SSW 20:42:24 26° SE 20:45:39 10° E daylight
09 Aug - 22:18:42 10° WSW 22:22:37 76° NNW 22:26:25 10° ENE visible
09 Aug - 23:59:47 10° WNW 00:03:25 41° N 00:06:59 10° ENE visible
10 Aug - 01:40:31 10° WNW 01:44:15 64° NNE 01:48:00 10° E visible
10 Aug - 03:21:11 10° WNW 03:24:34 32° SW 03:28:00 10° SSE night (unlit)
10 Aug - 20:43:16 10° SW 20:47:03 40° SE 20:50:41 10° ENE daylight
10 Aug - 22:23:36 10° W 22:27:28 58° NNW 22:31:12 10° ENE visible
11 Aug - 00:04:41 10° WNW 00:08:20 41° N 00:11:55 10° ENE visible
11 Aug - 01:45:19 10° WNW 01:49:05 85° NNE 01:52:51 10° ESE visible
11 Aug - 03:26:19 10° W 03:29:11 21° SW 03:32:06 10° S night (unlit)
11 Aug - 19:10:02 10° SSE 19:11:50 13° SE 19:13:36 10° ESE daylight
11 Aug - 20:47:47 10° SW 20:51:46 60° SSE 20:55:33 10° ENE daylight
11 Aug - 22:28:32 10° W 22:32:20 48° NNW 22:36:01 10° ENE visible
12 Aug - 00:09:33 10° WNW 00:13:15 45° N 00:16:52 10° E visible
12 Aug - 01:50:07 10° WNW 01:53:51 67° SSW 01:57:35 10° SE visible
12 Aug - 03:31:56 10° WSW 03:33:44 13° SW 03:35:35 10° SSW night (unlit)
12 Aug - 19:13:21 10° S 19:16:24 20° SE 19:19:20 10° E daylight
12 Aug - 20:52:28 10° WSW 20:56:31 87° SSE 21:00:22 10° ENE daylight
12 Aug - 22:33:30 10° W 22:37:14 43° N 22:40:52 10° ENE visible
13 Aug - 00:14:23 10° WNW 00:18:08 54° NNE 00:21:49 10° E visible
13 Aug - 01:54:58 10° WNW 01:58:34 44° SW 02:02:09 10° SE night (unlit)
13 Aug - 19:17:22 10° SSW 19:21:00 30° SE 19:24:31 10° E daylight
13 Aug - 20:57:18 10° WSW 21:01:19 70° NNW 21:05:10 10° ENE visible
13 Aug - 22:38:26 10° WNW 22:42:09 41° N 22:45:45 10° ENE visible
14 Aug - 00:19:11 10° WNW 00:22:59 69° NNE 00:26:43 10° ESE visible
14 Aug - 01:59:57 10° W 02:03:14 28° SW 02:06:28 10° SSE night (unlit)
14 Aug - 19:21:42 10° SW 19:25:41 46° SSE 19:29:29 10° ENE daylight
14 Aug - 21:02:13 10° W 21:06:10 55° NNW 21:09:57 10° ENE visible
14 Aug - 22:43:20 10° WNW 22:47:05 43° N 22:50:41 10° ENE visible
15 Aug - 00:23:59 10° WNW 00:27:47 87° SSW 00:31:33 10° ESE visible
15 Aug - 02:05:11 10° W 02:07:49 18° SW 02:10:26 10° S night (unlit)
15 Aug - 17:47:54 10° S 17:50:24 15° SE 17:52:49 10° E daylight
15 Aug - 19:26:16 10° SW 19:30:25 69° SSE 19:34:19 10° ENE daylight
15 Aug - 21:07:10 10° W 21:11:03 47° N 21:14:46 10° ENE visible
15 Aug - 22:48:12 10° WNW 22:51:59 48° N 22:55:38 10° E visible
16 Aug - 00:28:48 10° WNW 00:32:32 59° SSW 00:36:14 10° SE visible
16 Aug - 02:11:13 10° WSW 02:12:21 11° SW 02:13:28 10° SSW night (unlit)
16 Aug - 17:51:32 10° SSW 17:54:59 24° SE 17:58:15 10° E daylight
16 Aug - 19:31:00 10° WSW 19:35:11 86° NNW 19:39:08 10° ENE daylight
16 Aug - 21:12:07 10° WNW 21:15:58 43° N 21:19:38 10° ENE visible
16 Aug - 22:53:01 10° WNW 22:56:51 58° NNE 23:00:34 10° E visible
